Flagstaff, AZ

9:41 AM MST on July 25, 2016 (GMT -0700)
Flagstaff Pulliam

Weather History for KFLG - August, 2013

Change the Weather History Date:

Friday, August 16, 2013

  Actual Average Record
Temperature  
Mean Temperature 69 °F 64 °F  
Max Temperature 84 °F 78 °F 89 °F (1939)
Min Temperature 53 °F 50 °F 37 °F (1968)
Degree Days  
Heating Degree Days 0 2  
Month to date heating degree days 27 19  
Since 1 July heating degree days 36 51  
Cooling Degree Days 4 1  
Month to date cooling degree days 12 23  
Year to date cooling degree days 137 104  
Growing Degree Days 18 (Base 50)    
Moisture  
Dew Point 50 °F    
Average Humidity 54    
Maximum Humidity 81    
Minimum Humidity 26    
Precipitation  
Precipitation 0.14 in 0.10 in 0.85 in (1958)
Month to date precipitation 0.37 1.69  
Year to date precipitation 13.20 12.77  
Snow  
Snow 0.00 in 0.00 in 0.00 in (2002)
Month to date snowfall 0.0 0.0  
Since 1 July snowfall 0.0 0.0  
Snow Depth 0.00 in    
Sea Level Pressure  
Sea Level Pressure 30.08 in    
Wind  
Wind Speed 2 mph (NNW)    
Max Wind Speed 18 mph    
Max Gust Speed 30 mph    
Visibility 10 miles    
Events Rain    
T = Trace of Precipitation, MM = Missing Value Source: NWS Daily Summary

Daily Weather History Graph

Daily Weather History Graph

Search for Another Location

Airport or City:

Trip Planner

Search our weather history database for the weather conditions in past years. The results will help you decide how hot, cold, wet, or windy it might be!

Date:

Astronomy

Aug. 16, 2013 Rise Set
Actual Time 5:47 AM MST 7:13 PM MST
Civil Twilight 5:20 AM MST 7:40 PM MST
Nautical Twilight 4:48 AM MST 8:12 PM MST
Astronomical Twilight 4:14 AM MST 8:45 PM MST
Moon 3:31 PM MST (8/16) 12:58 AM MST (8/16)
Length of Visible Light 14h 19m
Length of Day
13h 26m
Waxing Gibbous, 76% of the Moon is Illuminated
Aug 16
Waxing Gibbous
Aug 20
Full
Aug 28
Last Quarter
Sep 5
New
Sep 12
First Quarter

Hourly Weather History & Observations

Time (MST) Temp. Dew Point Humidity Pressure Visibility Wind Dir Wind Speed Gust Speed Precip Events Conditions
12:57 AM 55.9 °F 46.9 °F 72% 30.09 in 10.0 mi SW 3.5 mph - N/A   Clear
1:57 AM 55.0 °F 46.0 °F 72% 30.08 in 10.0 mi Calm Calm - N/A   Clear
2:57 AM 55.0 °F 46.0 °F 72% 30.04 in 10.0 mi Calm Calm - N/A   Clear
3:57 AM 54.0 °F 46.0 °F 75% 30.05 in 10.0 mi Calm Calm - N/A   Clear
4:57 AM 54.0 °F 46.0 °F 75% 30.07 in 10.0 mi Calm Calm - N/A   Mostly Cloudy
5:57 AM 53.1 °F 46.9 °F 80% 30.09 in 10.0 mi Calm Calm - N/A   Scattered Clouds
6:57 AM 59.0 °F 48.9 °F 69% 30.10 in 10.0 mi Calm Calm - N/A   Clear
7:57 AM 70.0 °F 51.1 °F 51% 30.09 in 10.0 mi Calm Calm - N/A   Clear
8:57 AM 75.9 °F 48.9 °F 38% 30.06 in 10.0 mi East 4.6 mph - N/A   Clear
9:57 AM 80.1 °F 44.1 °F 28% 30.07 in 10.0 mi Calm Calm - N/A   Clear
10:57 AM 81.0 °F 43.0 °F 26% 30.06 in 10.0 mi NNW 5.8 mph - N/A   Clear
11:57 AM 81.0 °F 45.0 °F 28% 30.06 in 10.0 mi SSW 9.2 mph 17.3 mph N/A   Scattered Clouds
12:57 PM 82.9 °F 44.1 °F 25% 30.04 in 10.0 mi SSW 9.2 mph - N/A   Clear
1:35 PM 77.0 °F 48.2 °F 36% 30.38 in 10.0 mi NE 12.7 mph - 0.00 in   Overcast
1:57 PM 73.9 °F 53.1 °F 48% 30.09 in 10.0 mi East 11.5 mph - 0.00 in Rain Light Rain
2:57 PM 66.0 °F 61.0 °F 84% 30.11 in 10.0 mi North 3.5 mph - 0.14 in Rain Light Rain
3:57 PM 75.0 °F 57.9 °F 55% 30.06 in 10.0 mi Calm Calm - 0.00 in   Clear
4:57 PM 75.9 °F 53.1 °F 45% 30.06 in 10.0 mi Calm Calm - N/A   Partly Cloudy
5:57 PM 77.0 °F 50.0 °F 39% 30.06 in 10.0 mi NNW 4.6 mph - N/A   Partly Cloudy
6:57 PM 69.1 °F 55.0 °F 61% 30.07 in 10.0 mi Calm Calm - N/A   Clear
7:57 PM 64.0 °F 55.0 °F 73% 30.06 in 10.0 mi Calm Calm - N/A   Clear
8:57 PM 62.1 °F 54.0 °F 75% 30.06 in 10.0 mi Calm Calm - N/A   Clear
9:57 PM 61.0 °F 54.0 °F 78% 30.06 in 10.0 mi Calm Calm - N/A   Mostly Cloudy
10:57 PM 61.0 °F 53.1 °F 75% 30.06 in 10.0 mi WNW 3.5 mph - N/A   Mostly Cloudy
11:57 PM 64.9 °F 51.1 °F 61% 30.03 in 10.0 mi NW 3.5 mph - N/A   Overcast